EW4052 Weather Reports


time (UTC)temp
C
wind
direction
speed
KPH
gust
KPH
rain 1hr
cm
rain 24hr
cm
rain mn
cm
humidity
%
barometer
mb
20220629041531 21 324 0.0 0.0 0.00 0.00 0.00 75 1016.1
20220629040031 22 324 0.0 0.0 0.00 0.00 0.00 72 1016.0
20220629034526 22 324 0.0 0.0 0.00 0.00 0.00 70 1015.9
20220629033027 23 324 0.0 0.0 0.00 0.00 0.00 67 1015.8
20220629031535 23 324 0.0 0.0 0.00 0.00 0.00 67 1015.6
20220629030025 23 324 0.0 1.6 0.00 0.00 0.00 66 1015.4
20220629024525 24 321 0.0 4.8 0.00 0.00 0.00 66 1015.0
20220629023023 23 310 0.0 0.0 0.00 0.00 0.00 68 1014.7
20220629021523 24 311 0.0 3.2 0.00 0.00 0.00 66 1014.4
20220629020023 25 300 0.0 4.8 0.00 0.00 0.00 64 1014.4
20220629014520 25 312 0.0 1.6 0.00 0.00 0.00 63 1014.3
20220629013021 26 302 0.0 9.7 0.00 0.00 0.00 62 1014.2
20220629011520 26 300 0.0 9.7 0.00 0.00 0.00 59 1014.1
20220629010019 27 306 1.6 11.3 0.00 0.00 0.00 60 1014.0
20220629004524 27 279 3.2 16.1 0.00 0.00 0.00 55 1013.9
20220629003017 28 264 1.6 12.9 0.00 0.00 0.00 53 1013.8
20220629001517 27 263 0.0 9.7 0.00 0.00 0.00 52 1013.6
20220629000017 27 240 0.0 9.7 0.00 0.00 0.00 56 1013.8
20220628234517 27 258 0.0 9.7 0.00 0.00 0.00 55 1013.6
20220628233015 27 242 0.0 11.3 0.00 0.00 0.00 52 1013.6
20220628231514 28 230 3.2 17.7 0.00 0.00 0.00 49 1013.6
20220628230012 28 225 4.8 14.5 0.00 0.00 0.00 48 1013.7
20220628224512 28 251 6.4 17.7 0.00 0.00 0.00 48 1014.0
20220628223009 29 275 1.6 20.9 0.00 0.00 0.00 47 1014.1
20220628221510 30 159 4.8 16.1 0.00 0.00 0.00 45 1014.2
20220628220016 28 211 1.6 16.1 0.00 0.00 0.00 48 1014.3
20220628214506 28 273 4.8 14.5 0.00 0.00 0.00 46 1014.6
20220628213006 29 218 4.8 17.7 0.00 0.00 0.00 46 1014.6
20220628211507 29 272 4.8 19.3 0.00 0.00 0.00 45 1014.8
20220628210103 29 276 6.4 17.7 0.00 0.00 0.00 46 1015.1
20220628204559 28 254 3.2 19.3 0.00 0.00 0.00 43 1015.2
20220628203059 29 226 4.8 19.3 0.00 0.00 0.00 41 1015.2
20220628201556 29 276 6.4 20.9 0.00 0.00 0.00 41 1015.4
20220628200057 29 311 6.4 20.9 0.00 0.00 0.00 42 1015.6
20220628194554 29 306 1.6 16.1 0.00 0.00 0.00 41 1015.6
20220628193053 29 286 4.8 16.1 0.00 0.00 0.00 42 1015.7
20220628191549 29 39 0.0 17.7 0.00 0.00 0.00 44 1015.9
20220628190047 29 243 6.4 16.1 0.00 0.00 0.00 41 1016.0
20220628184545 28 259 3.2 20.9 0.00 0.00 0.00 42 1016.1
20220628183042 28 305 1.6 11.3 0.00 0.00 0.00 43 1016.3
20220628181540 28 280 0.0 14.5 0.00 0.00 0.00 46 1016.5
20220628180137 28 224 1.6 14.5 0.00 0.00 0.00 46 1016.6
20220628174537 27 202 3.2 19.3 0.00 0.00 0.00 47 1016.7
20220628173033 27 327 4.8 20.9 0.00 0.00 0.00 46 1016.9
20220628171529 27 74 6.4 16.1 0.00 0.00 0.00 46 1017.0
20220628170027 26 271 1.6 17.7 0.00 0.00 0.00 48 1017.4
20220628164523 26 297 0.0 17.7 0.00 0.00 0.00 51 1017.6
20220628163019 25 268 3.2 17.7 0.00 0.00 0.00 51 1017.7
20220628161516 25 279 0.0 19.3 0.00 0.00 0.00 53 1018.1
20220628160013 25 217 0.0 14.5 0.00 0.00 0.00 54 1018.3
20220628154509 23 275 0.0 12.9 0.00 0.00 0.00 57 1018.4
20220628153005 22 270 1.6 9.7 0.00 0.00 0.00 63 1018.8
20220628151502 22 281 0.0 8.0 0.00 0.00 0.00 62 1019.1
20220628150059 22 261 1.6 12.9 0.00 0.00 0.00 61 1019.3
20220628144603 20 240 0.0 11.3 0.00 0.00 0.00 65 1019.3
20220628143104 20 262 0.0 8.0 0.00 0.00 0.00 61 1019.7
20220628141551 20 281 1.6 11.3 0.00 0.00 0.00 62 1019.7
20220628140102 20 282 1.6 17.7 0.00 0.00 0.00 62 1020.1
20220628134545 19 238 0.0 6.4 0.00 0.00 0.00 65 1020.0
20220628133044 19 237 1.6 9.7 0.00 0.00 0.00 64 1019.9
20220628131543 18 242 0.0 11.3 0.00 0.00 0.00 64 1019.9
20220628130042 18 235 0.0 9.7 0.00 0.00 0.00 64 1019.9
20220628124540 18 266 0.0 8.0 0.00 0.00 0.00 66 1019.9
20220628123040 17 273 0.0 4.8 0.00 0.00 0.00 73 1020.0
20220628121539 16 225 0.0 4.8 0.00 0.00 0.00 74 1020.1
20220628120038 16 253 0.0 4.8 0.00 0.00 0.00 76 1020.0
20220628114538 15 244 0.0 4.8 0.00 0.00 0.00 75 1020.1
20220628113045 15 227 0.0 4.8 0.00 0.00 0.00 77 1020.0
20220628111537 15 246 0.0 4.8 0.00 0.00 0.00 76 1020.0
20220628110037 15 252 0.0 1.6 0.00 0.00 0.00 76 1020.0
20220628104544 15 244 0.0 4.8 0.00 0.00 0.00 76 1019.9
20220628103043 15 240 0.0 0.0 0.00 0.00 0.00 76 1020.0
20220628101536 15 239 0.0 6.4 0.00 0.00 0.00 75 1019.9
20220628100034 15 262 0.0 4.8 0.00 0.00 0.00 75 1019.8
20220628094535 15 271 0.0 1.6 0.00 0.00 0.00 74 1019.9
20220628093032 15 266 0.0 1.6 0.00 0.00 0.00 74 1019.9
20220628091554 15 269 0.0 1.6 0.00 0.00 0.00 74 1019.8
20220628090033 15 263 0.0 0.0 0.00 0.00 0.00 74 1019.8
20220628084531 15 263 0.0 3.2 0.00 0.00 0.00 73 1019.8
20220628083031 16 242 0.0 3.2 0.00 0.00 0.00 73 1019.8
20220628081526 16 246 0.0 4.8 0.00 0.00 0.00 73 1019.8
20220628080026 16 246 0.0 1.6 0.00 0.00 0.00 72 1019.8
20220628074524 16 246 0.0 3.2 0.00 0.00 0.00 72 1019.7
20220628073021 16 244 0.0 0.0 0.00 0.00 0.00 72 1019.7
20220628071520 16 244 0.0 0.0 0.00 0.00 0.00 72 1019.8
20220628070019 16 244 0.0 0.0 0.00 0.00 0.00 71 1019.8
20220628064516 16 244 0.0 0.0 0.00 0.00 0.00 70 1019.8
20220628063017 17 244 0.0 1.6 0.00 0.00 0.00 69 1020.0
20220628061513 17 244 0.0 0.0 0.00 0.00 0.00 69 1020.1
20220628060026 17 244 0.0 0.0 0.00 0.00 0.00 70 1020.1
20220628054519 17 244 0.0 0.0 0.00 0.00 0.00 71 1020.2
20220628053006 18 244 0.0 0.0 0.00 0.00 0.00 71 1020.3
20220628051505 18 244 0.0 0.0 0.00 0.00 0.00 68 1020.4
20220628050200 18 244 0.0 0.0 0.00 0.00 0.00 67 1020.5
20220628044559 18 244 0.0 0.0 0.00 0.00 0.00 65 1020.5
20220628043059 19 244 0.0 0.0 0.00 0.00 0.00 63 1020.7